| time (UTC) | temp F | wind direction | speed MPH | gust MPH | rain 1hr in | rain 24hr in | rain mn in | humidity % | barometer mb |
| 20260904030111 | 82 | 209 | 13.0 | 15.0 | 0.00 | 0.00 | 0.00 | 40 | 1013.0 |
| 20260904025607 | 82 | 208 | 11.0 | 17.0 | 0.00 | 0.00 | 0.00 | 40 | 1012.6 |
| 20260904025101 | 82 | 217 | 13.0 | 17.0 | 0.00 | 0.00 | 0.00 | 40 | 1012.5 |
| 20260904024557 | 82 | 211 | 13.0 | 15.0 | 0.00 | 0.00 | 0.00 | 41 | 1012.4 |
| 20260904024053 | 82 | 196 | 15.0 | 16.0 | 0.00 | 0.00 | 0.00 | 40 | 1012.4 |
| 20260904023549 | 82 | 194 | 13.0 | 15.0 | 0.00 | 0.00 | 0.00 | 40 | 1012.4 |
| 20260904023044 | 82 | 189 | 15.0 | 19.0 | 0.00 | 0.00 | 0.00 | 40 | 1012.5 |
| 20260904022539 | 82 | 204 | 13.0 | 18.0 | 0.00 | 0.00 | 0.00 | 40 | 1012.3 |
| 20260904022036 | 83 | 213 | 17.0 | 21.0 | 0.00 | 0.00 | 0.00 | 40 | 1012.3 |
| 20260904021531 | 83 | 213 | 15.0 | 18.0 | 0.00 | 0.00 | 0.00 | 39 | 1012.3 |
| 20260904021026 | 84 | 191 | 13.0 | 15.0 | 0.00 | 0.00 | 0.00 | 38 | 1012.1 |
| 20260904020526 | 84 | 205 | 19.0 | 22.0 | 0.00 | 0.00 | 0.00 | 37 | 1012.1 |
| 20260904020021 | 84 | 216 | 13.0 | 18.0 | 0.00 | 0.00 | 0.00 | 36 | 1011.7 |
| 20260904015516 | 85 | 204 | 13.0 | 19.0 | 0.00 | 0.00 | 0.00 | 36 | 1012.0 |
| 20260904015014 | 86 | 207 | 16.0 | 24.0 | 0.00 | 0.00 | 0.00 | 35 | 1011.6 |
| 20260904014509 | 86 | 202 | 23.0 | 26.0 | 0.00 | 0.00 | 0.00 | 34 | 1011.6 |
| 20260904014005 | 88 | 201 | 25.0 | 33.0 | 0.00 | 0.00 | 0.00 | 32 | 1011.5 |
| 20260904013501 | 89 | 155 | 12.0 | 18.0 | 0.00 | 0.00 | 0.00 | 30 | 1010.9 |
| 20260904012957 | 89 | 157 | 12.0 | 16.0 | 0.00 | 0.00 | 0.00 | 30 | 1011.3 |
| 20260904012456 | 90 | 162 | 14.0 | 18.0 | 0.00 | 0.00 | 0.00 | 30 | 1011.1 |
| 20260904011950 | 90 | 155 | 13.0 | 18.0 | 0.00 | 0.00 | 0.00 | 30 | 1011.1 |
| 20260904011445 | 90 | 156 | 12.0 | 17.0 | 0.00 | 0.00 | 0.00 | 30 | 1011.2 |
| 20260904010941 | 90 | 153 | 8.0 | 13.0 | 0.00 | 0.00 | 0.00 | 29 | 1010.7 |
| 20260904010437 | 90 | 180 | 6.0 | 9.0 | 0.00 | 0.00 | 0.00 | 29 | 1011.2 |
| 20260904005931 | 90 | 182 | 7.0 | 9.0 | 0.00 | 0.00 | 0.00 | 29 | 1010.7 |
| 20260904005422 | 91 | 166 | 8.0 | 14.0 | 0.00 | 0.00 | 0.00 | 28 | 1010.8 |
| 20260904004922 | 91 | 164 | 12.0 | 16.0 | 0.00 | 0.00 | 0.00 | 28 | 1010.7 |
| 20260904004419 | 90 | 178 | 6.0 | 13.0 | 0.00 | 0.00 | 0.00 | 29 | 1010.6 |
| 20260904003919 | 91 | 194 | 13.0 | 15.0 | 0.00 | 0.00 | 0.00 | 29 | 1010.5 |
| 20260904003415 | 91 | 184 | 12.0 | 17.0 | 0.00 | 0.00 | 0.00 | 28 | 1010.7 |
| 20260904002909 | 92 | 194 | 13.0 | 16.0 | 0.00 | 0.00 | 0.00 | 28 | 1010.4 |
| 20260904002406 | 93 | 201 | 16.0 | 22.0 | 0.00 | 0.00 | 0.00 | 27 | 1010.8 |
| 20260904001904 | 93 | 183 | 15.0 | 22.0 | 0.00 | 0.00 | 0.00 | 27 | 1010.7 |
| 20260904001401 | 93 | 200 | 15.0 | 22.0 | 0.00 | 0.00 | 0.00 | 27 | 1010.7 |
| 20260904000855 | 93 | 204 | 18.0 | 20.0 | 0.00 | 0.00 | 0.00 | 27 | 1010.3 |
| 20260904000355 | 93 | 205 | 12.0 | 20.0 | 0.00 | 0.00 | 0.00 | 27 | 1010.8 |
| 20260903235855 | 93 | 190 | 15.0 | 19.0 | 0.00 | 0.00 | 0.00 | 27 | 1010.4 |
| 20260903235351 | 93 | 187 | 15.0 | 19.0 | 0.00 | 0.00 | 0.00 | 27 | 1010.3 |
| 20260903234850 | 93 | 203 | 15.0 | 19.0 | 0.00 | 0.00 | 0.00 | 27 | 1010.3 |
| 20260903234346 | 93 | 190 | 12.0 | 19.0 | 0.00 | 0.00 | 0.00 | 26 | 1010.1 |
| 20260903233842 | 94 | 198 | 15.0 | 19.0 | 0.00 | 0.00 | 0.00 | 26 | 1010.4 |
| 20260903233338 | 95 | 210 | 13.0 | 13.0 | 0.00 | 0.00 | 0.00 | 23 | 1010.1 |
| 20260903232837 | 94 | 232 | 9.0 | 15.0 | 0.00 | 0.00 | 0.00 | 23 | 1010.3 |
| 20260903232333 | 95 | 205 | 12.0 | 15.0 | 0.00 | 0.00 | 0.00 | 23 | 1009.8 |
| 20260903231832 | 96 | 182 | 9.0 | 14.0 | 0.00 | 0.00 | 0.00 | 22 | 1010.3 |
| 20260903231327 | 96 | 191 | 19.0 | 19.0 | 0.00 | 0.00 | 0.00 | 23 | 1010.1 |
| 20260903230823 | 96 | 171 | 10.0 | 16.0 | 0.00 | 0.00 | 0.00 | 23 | 1010.3 |
| 20260903230318 | 96 | 198 | 11.0 | 16.0 | 0.00 | 0.00 | 0.00 | 23 | 1010.1 |
| 20260903225814 | 96 | 206 | 7.0 | 17.0 | 0.00 | 0.00 | 0.00 | 23 | 1010.3 |
| 20260903225310 | 96 | 165 | 11.0 | 19.0 | 0.00 | 0.00 | 0.00 | 23 | 1010.1 |
| 20260903224806 | 96 | 190 | 11.0 | 16.0 | 0.00 | 0.00 | 0.00 | 23 | 1010.1 |
| 20260903224302 | 95 | 204 | 13.0 | 19.0 | 0.00 | 0.00 | 0.00 | 23 | 1010.3 |
| 20260903223757 | 95 | 199 | 16.0 | 17.0 | 0.00 | 0.00 | 0.00 | 24 | 1010.4 |
| 20260903223256 | 95 | 227 | 8.0 | 18.0 | 0.00 | 0.00 | 0.00 | 24 | 1010.4 |
| 20260903222751 | 96 | 226 | 7.0 | 9.0 | 0.00 | 0.00 | 0.00 | 23 | 1010.0 |
| 20260903222250 | 95 | 229 | 11.0 | 13.0 | 0.00 | 0.00 | 0.00 | 23 | 1010.0 |
| 20260903221745 | 96 | 245 | 12.0 | 13.0 | 0.00 | 0.00 | 0.00 | 23 | 1010.3 |
| 20260903221243 | 96 | 209 | 11.0 | 15.0 | 0.00 | 0.00 | 0.00 | 23 | 1010.3 |
| 20260903220742 | 97 | 187 | 11.0 | 14.0 | 0.00 | 0.00 | 0.00 | 22 | 1010.5 |
| 20260903220237 | 96 | 182 | 6.0 | 13.0 | 0.00 | 0.00 | 0.00 | 23 | 1010.5 |
| 20260903215730 | 96 | 246 | 4.0 | 11.0 | 0.00 | 0.00 | 0.00 | 23 | 1010.6 |
| 20260903215226 | 97 | 221 | 8.0 | 18.0 | 0.00 | 0.00 | 0.00 | 23 | 1010.7 |
| 20260903214724 | 97 | 199 | 6.0 | 10.0 | 0.00 | 0.00 | 0.00 | 23 | 1010.5 |
| 20260903214221 | 97 | 118 | 9.0 | 10.0 | 0.00 | 0.00 | 0.00 | 23 | 1010.7 |
| 20260903213714 | 96 | 191 | 7.0 | 12.0 | 0.00 | 0.00 | 0.00 | 23 | 1010.7 |
| 20260903213210 | 96 | 165 | 9.0 | 11.0 | 0.00 | 0.00 | 0.00 | 23 | 1010.7 |
| 20260903212706 | 95 | 215 | 4.0 | 11.0 | 0.00 | 0.00 | 0.00 | 24 | 1010.9 |
| 20260903212202 | 96 | 193 | 5.0 | 9.0 | 0.00 | 0.00 | 0.00 | 23 | 1010.8 |
| 20260903211655 | 96 | 132 | 7.0 | 12.0 | 0.00 | 0.00 | 0.00 | 23 | 1010.7 |
| 20260903211153 | 97 | 118 | 4.0 | 8.0 | 0.00 | 0.00 | 0.00 | 23 | 1010.9 |
| 20260903210648 | 96 | 184 | 9.0 | 15.0 | 0.00 | 0.00 | 0.00 | 23 | 1011.1 |
| 20260903210144 | 97 | 80 | 6.0 | 9.0 | 0.00 | 0.00 | 0.00 | 23 | 1010.8 |
| 20260903205643 | 96 | 204 | 3.0 | 6.0 | 0.00 | 0.00 | 0.00 | 22 | 1011.2 |
| 20260903205142 | 96 | 157 | 11.0 | 18.0 | 0.00 | 0.00 | 0.00 | 23 | 1011.3 |
| 20260903204638 | 97 | 158 | 11.0 | 13.0 | 0.00 | 0.00 | 0.00 | 22 | 1011.2 |
| 20260903204134 | 96 | 102 | 2.0 | 4.0 | 0.00 | 0.00 | 0.00 | 23 | 1011.2 |
| 20260903203629 | 97 | 150 | 5.0 | 8.0 | 0.00 | 0.00 | 0.00 | 23 | 1011.4 |
| 20260903203124 | 96 | 213 | 9.0 | 15.0 | 0.00 | 0.00 | 0.00 | 24 | 1011.6 |
| 20260903202619 | 95 | 246 | 5.0 | 6.0 | 0.00 | 0.00 | 0.00 | 24 | 1011.7 |
| 20260903202114 | 94 | 212 | 10.0 | 13.0 | 0.00 | 0.00 | 0.00 | 24 | 1011.5 |
| 20260903201609 | 95 | 228 | 11.0 | 11.0 | 0.00 | 0.00 | 0.00 | 24 | 1011.6 |
| 20260903201108 | 94 | 204 | 9.0 | 9.0 | 0.00 | 0.00 | 0.00 | 24 | 1011.7 |
| 20260903200602 | 94 | 202 | 15.0 | 18.0 | 0.00 | 0.00 | 0.00 | 24 | 1011.7 |
| 20260903200058 | 95 | 161 | 10.0 | 11.0 | 0.00 | 0.00 | 0.00 | 24 | 1011.8 |
| 20260903195548 | 97 | 185 | 4.0 | 12.0 | 0.00 | 0.00 | 0.00 | 23 | 1012.1 |
| 20260903195043 | 96 | 227 | 0.0 | 5.0 | 0.00 | 0.00 | 0.00 | 24 | 1011.8 |
| 20260903194533 | 95 | 265 | 7.0 | 8.0 | 0.00 | 0.00 | 0.00 | 24 | 1012.0 |
| 20260903194028 | 94 | 259 | 9.0 | 9.0 | 0.00 | 0.00 | 0.00 | 25 | 1012.0 |
| 20260903193525 | 94 | 231 | 4.0 | 10.0 | 0.00 | 0.00 | 0.00 | 25 | 1012.1 |
| 20260903193020 | 95 | 157 | 12.0 | 13.0 | 0.00 | 0.00 | 0.00 | 24 | 1012.4 |
| 20260903192517 | 96 | 211 | 11.0 | 18.0 | 0.00 | 0.00 | 0.00 | 24 | 1012.2 |
| 20260903192016 | 95 | 180 | 4.0 | 10.0 | 0.00 | 0.00 | 0.00 | 24 | 1012.5 |
| 20260903191513 | 96 | 212 | 16.0 | 22.0 | 0.00 | 0.00 | 0.00 | 23 | 1012.3 |
| 20260903191013 | 96 | 242 | 12.0 | 18.0 | 0.00 | 0.00 | 0.00 | 24 | 1012.5 |
| 20260903190506 | 96 | 120 | 3.0 | 10.0 | 0.00 | 0.00 | 0.00 | 24 | 1012.8 |
| 20260903190000 | 96 | 153 | 11.0 | 14.0 | 0.00 | 0.00 | 0.00 | 25 | 1012.8 |
| 20260903185456 | 97 | 185 | 11.0 | 11.0 | 0.00 | 0.00 | 0.00 | 24 | 1012.6 |
| 20260903184956 | 96 | 138 | 6.0 | 6.0 | 0.00 | 0.00 | 0.00 | 24 | 1012.9 |
| 20260903184448 | 96 | 212 | 5.0 | 6.0 | 0.00 | 0.00 | 0.00 | 25 | 1012.9 |
| 20260903183947 | 94 | 0 | 2.0 | 5.0 | 0.00 | 0.00 | 0.00 | 25 | 1013.2 |
| 20260903183441 | 95 | 255 | 9.0 | 11.0 | 0.00 | 0.00 | 0.00 | 24 | 1013.0 |
| 20260903182936 | 95 | 249 | 8.0 | 15.0 | 0.00 | 0.00 | 0.00 | 24 | 1013.3 |
| 20260903182435 | 95 | 220 | 13.0 | 18.0 | 0.00 | 0.00 | 0.00 | 24 | 1013.4 |
| 20260903181930 | 95 | 342 | 4.0 | 9.0 | 0.00 | 0.00 | 0.00 | 25 | 1013.4 |
| 20260903181425 | 94 | 23 | 0.0 | 6.0 | 0.00 | 0.00 | 0.00 | 25 | 1013.4 |
| 20260903180924 | 93 | 2 | 4.0 | 7.0 | 0.00 | 0.00 | 0.00 | 26 | 1013.8 |
| 20260903180419 | 93 | 318 | 3.0 | 7.0 | 0.00 | 0.00 | 0.00 | 26 | 1013.8 |
| 20260903175918 | 93 | 247 | 7.0 | 9.0 | 0.00 | 0.00 | 0.00 | 27 | 1013.9 |
| 20260903175413 | 94 | 233 | 8.0 | 11.0 | 0.00 | 0.00 | 0.00 | 26 | 1013.7 |
| 20260903174907 | 93 | 236 | 5.0 | 9.0 | 0.00 | 0.00 | 0.00 | 27 | 1013.7 |
| 20260903174403 | 93 | 291 | 6.0 | 13.0 | 0.00 | 0.00 | 0.00 | 27 | 1013.7 |
| 20260903173903 | 93 | 319 | 3.0 | 5.0 | 0.00 | 0.00 | 0.00 | 28 | 1013.8 |
| 20260903173358 | 92 | 258 | 11.0 | 17.0 | 0.00 | 0.00 | 0.00 | 29 | 1014.0 |
| 20260903172853 | 92 | 248 | 5.0 | 10.0 | 0.00 | 0.00 | 0.00 | 29 | 1014.0 |
| 20260903172348 | 92 | 238 | 12.0 | 17.0 | 0.00 | 0.00 | 0.00 | 29 | 1013.9 |
| 20260903171843 | 91 | 261 | 10.0 | 16.0 | 0.00 | 0.00 | 0.00 | 30 | 1013.9 |
| 20260903171339 | 91 | 233 | 10.0 | 17.0 | 0.00 | 0.00 | 0.00 | 30 | 1014.1 |
| 20260903170838 | 91 | 233 | 11.0 | 12.0 | 0.00 | 0.00 | 0.00 | 31 | 1014.0 |
| 20260903170333 | 92 | 233 | 13.0 | 14.0 | 0.00 | 0.00 | 0.00 | 31 | 1014.1 |
| 20260903165831 | 90 | 278 | 11.0 | 12.0 | 0.00 | 0.00 | 0.00 | 32 | 1014.1 |
| 20260903165331 | 90 | 233 | 12.0 | 19.0 | 0.00 | 0.00 | 0.00 | 33 | 1014.0 |
| 20260903164826 | 90 | 234 | 15.0 | 17.0 | 0.00 | 0.00 | 0.00 | 32 | 1014.2 |
| 20260903164321 | 88 | 250 | 11.0 | 19.0 | 0.00 | 0.00 | 0.00 | 34 | 1014.2 |
| 20260903163820 | 88 | 230 | 16.0 | 19.0 | 0.00 | 0.00 | 0.00 | 34 | 1014.0 |
| 20260903163317 | 88 | 257 | 12.0 | 19.0 | 0.00 | 0.00 | 0.00 | 34 | 1013.9 |
| 20260903162813 | 87 | 226 | 8.0 | 17.0 | 0.00 | 0.00 | 0.00 | 36 | 1014.0 |
| 20260903162309 | 87 | 229 | 13.0 | 19.0 | 0.00 | 0.00 | 0.00 | 35 | 1014.1 |
| 20260903161805 | 87 | 231 | 13.0 | 20.0 | 0.00 | 0.00 | 0.00 | 35 | 1014.3 |
| 20260903161300 | 87 | 228 | 14.0 | 17.0 | 0.00 | 0.00 | 0.00 | 35 | 1014.2 |
| 20260903160755 | 87 | 228 | 18.0 | 21.0 | 0.00 | 0.00 | 0.00 | 36 | 1014.3 |
| 20260903160254 | 87 | 241 | 17.0 | 17.0 | 0.00 | 0.00 | 0.00 | 36 | 1014.0 |
| 20260903155753 | 86 | 219 | 16.0 | 23.0 | 0.00 | 0.00 | 0.00 | 36 | 1013.9 |
| 20260903155248 | 86 | 230 | 15.0 | 20.0 | 0.00 | 0.00 | 0.00 | 37 | 1014.0 |
| 20260903154744 | 85 | 240 | 16.0 | 19.0 | 0.00 | 0.00 | 0.00 | 38 | 1014.1 |
| 20260903154239 | 85 | 236 | 14.0 | 20.0 | 0.00 | 0.00 | 0.00 | 38 | 1014.1 |
| 20260903153735 | 85 | 226 | 19.0 | 20.0 | 0.00 | 0.00 | 0.00 | 38 | 1014.0 |
| 20260903153231 | 85 | 221 | 15.0 | 21.0 | 0.00 | 0.00 | 0.00 | 38 | 1014.0 |
| 20260903152727 | 85 | 246 | 15.0 | 18.0 | 0.00 | 0.00 | 0.00 | 39 | 1014.0 |
| 20260903152223 | 84 | 241 | 15.0 | 19.0 | 0.00 | 0.00 | 0.00 | 39 | 1014.0 |
| 20260903151722 | 84 | 227 | 18.0 | 22.0 | 0.00 | 0.00 | 0.00 | 40 | 1014.0 |
| 20260903151218 | 84 | 236 | 17.0 | 22.0 | 0.00 | 0.00 | 0.00 | 40 | 1013.9 |
| 20260903150713 | 83 | 236 | 17.0 | 19.0 | 0.00 | 0.00 | 0.00 | 41 | 1014.0 |
| 20260903150208 | 82 | 237 | 18.0 | 19.0 | 0.00 | 0.00 | 0.00 | 42 | 1014.3 |
| 20260903145708 | 82 | 230 | 16.0 | 20.0 | 0.00 | 0.00 | 0.00 | 42 | 1014.1 |
| 20260903145203 | 82 | 241 | 17.0 | 21.0 | 0.00 | 0.00 | 0.00 | 42 | 1014.0 |
| 20260903144702 | 82 | 235 | 12.0 | 18.0 | 0.00 | 0.00 | 0.00 | 43 | 1014.0 |
| 20260903144158 | 82 | 232 | 13.0 | 18.0 | 0.00 | 0.00 | 0.00 | 43 | 1014.2 |
| 20260903143653 | 81 | 236 | 20.0 | 22.0 | 0.00 | 0.00 | 0.00 | 43 | 1014.2 |
| 20260903143149 | 81 | 237 | 15.0 | 20.0 | 0.00 | 0.00 | 0.00 | 43 | 1014.2 |
| 20260903142645 | 80 | 230 | 14.0 | 20.0 | 0.00 | 0.00 | 0.00 | 44 | 1014.5 |
| 20260903142141 | 80 | 226 | 13.0 | 17.0 | 0.00 | 0.00 | 0.00 | 44 | 1014.2 |
| 20260903141636 | 80 | 235 | 15.0 | 20.0 | 0.00 | 0.00 | 0.00 | 45 | 1014.0 |
| 20260903141131 | 79 | 241 | 14.0 | 18.0 | 0.00 | 0.00 | 0.00 | 45 | 1014.1 |
| 20260903140627 | 79 | 235 | 13.0 | 16.0 | 0.00 | 0.00 | 0.00 | 45 | 1014.3 |
| 20260903140122 | 79 | 227 | 16.0 | 19.0 | 0.00 | 0.00 | 0.00 | 46 | 1014.2 |
| 20260903135619 | 79 | 229 | 10.0 | 13.0 | 0.00 | 0.00 | 0.00 | 46 | 1014.3 |
| 20260903135118 | 78 | 220 | 10.0 | 13.0 | 0.00 | 0.00 | 0.00 | 46 | 1014.0 |
| 20260903134617 | 77 | 230 | 12.0 | 14.0 | 0.00 | 0.00 | 0.00 | 47 | 1014.1 |
| 20260903134113 | 77 | 228 | 11.0 | 13.0 | 0.00 | 0.00 | 0.00 | 48 | 1014.2 |
| 20260903133611 | 77 | 225 | 9.0 | 12.0 | 0.00 | 0.00 | 0.00 | 49 | 1014.1 |
| 20260903133107 | 76 | 218 | 9.0 | 9.0 | 0.00 | 0.00 | 0.00 | 49 | 1014.1 |
| 20260903132602 | 76 | 210 | 8.0 | 12.0 | 0.00 | 0.00 | 0.00 | 49 | 1014.1 |
| 20260903132102 | 76 | 204 | 8.0 | 10.0 | 0.00 | 0.00 | 0.00 | 49 | 1014.0 |
| 20260903131556 | 75 | 216 | 7.0 | 12.0 | 0.00 | 0.00 | 0.00 | 49 | 1014.0 |
| 20260903131055 | 75 | 207 | 9.0 | 10.0 | 0.00 | 0.00 | 0.00 | 50 | 1014.1 |
| 20260903130550 | 75 | 202 | 9.0 | 12.0 | 0.00 | 0.00 | 0.00 | 50 | 1014.0 |
| 20260903130045 | 74 | 199 | 7.0 | 10.0 | 0.00 | 0.00 | 0.00 | 51 | 1013.9 |
| 20260903125543 | 73 | 201 | 7.0 | 9.0 | 0.00 | 0.00 | 0.00 | 51 | 1013.9 |
| 20260903125039 | 73 | 197 | 7.0 | 9.0 | 0.00 | 0.00 | 0.00 | 52 | 1013.8 |
| 20260903124538 | 72 | 189 | 7.0 | 9.0 | 0.00 | 0.00 | 0.00 | 52 | 1013.9 |
| 20260903124033 | 72 | 197 | 9.0 | 10.0 | 0.00 | 0.00 | 0.00 | 52 | 1013.8 |
| 20260903123532 | 72 | 181 | 7.0 | 10.0 | 0.00 | 0.00 | 0.00 | 52 | 1013.8 |
| 20260903123031 | 72 | 190 | 7.0 | 9.0 | 0.00 | 0.00 | 0.00 | 51 | 1013.8 |
| 20260903122530 | 72 | 189 | 7.0 | 9.0 | 0.00 | 0.00 | 0.00 | 51 | 1014.0 |
| 20260903122025 | 72 | 182 | 7.0 | 10.0 | 0.00 | 0.00 | 0.00 | 51 | 1013.8 |
| 20260903121520 | 72 | 190 | 7.0 | 9.0 | 0.00 | 0.00 | 0.00 | 51 | 1013.7 |
| 20260903121016 | 72 | 196 | 6.0 | 8.0 | 0.00 | 0.00 | 0.00 | 51 | 1013.6 |
| 20260903120514 | 73 | 180 | 6.0 | 9.0 | 0.00 | 0.00 | 0.00 | 51 | 1013.6 |
| 20260903120009 | 73 | 192 | 7.0 | 9.0 | 0.00 | 0.00 | 0.00 | 50 | 1013.8 |
| 20260903115507 | 73 | 188 | 7.0 | 10.0 | 0.00 | 0.00 | 0.00 | 50 | 1013.6 |
| 20260903115002 | 73 | 193 | 9.0 | 10.0 | 0.00 | 0.00 | 0.00 | 49 | 1013.8 |
| 20260903114457 | 74 | 194 | 7.0 | 10.0 | 0.00 | 0.00 | 0.00 | 49 | 1013.4 |
| 20260903113953 | 74 | 205 | 9.0 | 11.0 | 0.00 | 0.00 | 0.00 | 48 | 1013.8 |
| 20260903113448 | 74 | 199 | 8.0 | 12.0 | 0.00 | 0.00 | 0.00 | 48 | 1013.7 |
| 20260903112943 | 74 | 195 | 12.0 | 12.0 | 0.00 | 0.00 | 0.00 | 48 | 1013.6 |
| 20260903112440 | 74 | 190 | 10.0 | 12.0 | 0.00 | 0.00 | 0.00 | 48 | 1013.4 |
| 20260903111939 | 74 | 191 | 6.0 | 11.0 | 0.00 | 0.00 | 0.00 | 48 | 1013.4 |
| 20260903111433 | 75 | 192 | 10.0 | 12.0 | 0.00 | 0.00 | 0.00 | 47 | 1013.4 |
| 20260903110929 | 75 | 199 | 10.0 | 12.0 | 0.00 | 0.00 | 0.00 | 47 | 1013.3 |
| 20260903110425 | 75 | 187 | 9.0 | 15.0 | 0.00 | 0.00 | 0.00 | 47 | 1013.3 |
| 20260903105919 | 75 | 185 | 10.0 | 13.0 | 0.00 | 0.00 | 0.00 | 47 | 1013.1 |
| 20260903105415 | 75 | 157 | 7.0 | 13.0 | 0.00 | 0.00 | 0.00 | 47 | 1013.3 |
| 20260903104914 | 75 | 186 | 7.0 | 13.0 | 0.00 | 0.00 | 0.00 | 47 | 1013.2 |
| 20260903104408 | 75 | 190 | 9.0 | 12.0 | 0.00 | 0.00 | 0.00 | 47 | 1013.0 |
| 20260903103906 | 75 | 190 | 11.0 | 15.0 | 0.00 | 0.00 | 0.00 | 46 | 1013.2 |
| 20260903103401 | 75 | 186 | 9.0 | 10.0 | 0.00 | 0.00 | 0.00 | 47 | 1013.4 |
| 20260903102856 | 74 | 183 | 7.0 | 11.0 | 0.00 | 0.00 | 0.00 | 47 | 1013.4 |
| 20260903102351 | 74 | 185 | 8.0 | 11.0 | 0.00 | 0.00 | 0.00 | 47 | 1013.4 |
| 20260903101851 | 73 | 171 | 6.0 | 9.0 | 0.00 | 0.00 | 0.00 | 48 | 1013.2 |
| 20260903101346 | 73 | 169 | 7.0 | 9.0 | 0.00 | 0.00 | 0.00 | 49 | 1013.4 |
| 20260903100841 | 73 | 191 | 6.0 | 9.0 | 0.00 | 0.00 | 0.00 | 49 | 1013.3 |
| 20260903100342 | 73 | 196 | 8.0 | 9.0 | 0.00 | 0.00 | 0.00 | 49 | 1013.4 |
| 20260903095839 | 73 | 185 | 9.0 | 9.0 | 0.00 | 0.00 | 0.00 | 49 | 1013.7 |
| 20260903095339 | 73 | 193 | 7.0 | 9.0 | 0.00 | 0.00 | 0.00 | 49 | 1013.4 |
| 20260903094834 | 73 | 193 | 7.0 | 9.0 | 0.00 | 0.00 | 0.00 | 49 | 1013.7 |
| 20260903094328 | 73 | 199 | 8.0 | 8.0 | 0.00 | 0.00 | 0.00 | 49 | 1013.8 |
| 20260903093824 | 73 | 195 | 6.0 | 9.0 | 0.00 | 0.00 | 0.00 | 49 | 1013.9 |
| 20260903093319 | 74 | 200 | 8.0 | 9.0 | 0.00 | 0.00 | 0.00 | 49 | 1013.7 |
| 20260903092814 | 74 | 202 | 7.0 | 9.0 | 0.00 | 0.00 | 0.00 | 48 | 1013.8 |
| 20260903092309 | 74 | 201 | 7.0 | 8.0 | 0.00 | 0.00 | 0.00 | 48 | 1013.6 |
| 20260903091808 | 74 | 201 | 7.0 | 8.0 | 0.00 | 0.00 | 0.00 | 48 | 1013.6 |
| 20260903091301 | 75 | 210 | 8.0 | 9.0 | 0.00 | 0.00 | 0.00 | 47 | 1013.8 |
| 20260903090758 | 75 | 210 | 6.0 | 11.0 | 0.00 | 0.00 | 0.00 | 47 | 1013.7 |
| 20260903090257 | 75 | 203 | 8.0 | 11.0 | 0.00 | 0.00 | 0.00 | 47 | 1013.8 |
| 20260903085755 | 76 | 203 | 10.0 | 14.0 | 0.00 | 0.00 | 0.00 | 46 | 1013.8 |
| 20260903085250 | 76 | 205 | 8.0 | 12.0 | 0.00 | 0.00 | 0.00 | 46 | 1013.6 |
| 20260903084748 | 76 | 202 | 11.0 | 13.0 | 0.00 | 0.00 | 0.00 | 46 | 1013.6 |
| 20260903084243 | 75 | 207 | 10.0 | 13.0 | 0.00 | 0.00 | 0.00 | 46 | 1013.7 |
| 20260903083739 | 75 | 205 | 8.0 | 11.0 | 0.00 | 0.00 | 0.00 | 47 | 1013.6 |
| 20260903083238 | 75 | 196 | 10.0 | 10.0 | 0.00 | 0.00 | 0.00 | 47 | 1013.7 |
| 20260903082737 | 75 | 198 | 10.0 | 13.0 | 0.00 | 0.00 | 0.00 | 47 | 1013.6 |
| 20260903082233 | 75 | 199 | 9.0 | 13.0 | 0.00 | 0.00 | 0.00 | 48 | 1013.7 |
| 20260903081728 | 75 | 202 | 8.0 | 11.0 | 0.00 | 0.00 | 0.00 | 48 | 1013.8 |
| 20260903081224 | 75 | 202 | 9.0 | 14.0 | 0.00 | 0.00 | 0.00 | 48 | 1013.7 |
| 20260903080720 | 76 | 206 | 10.0 | 12.0 | 0.00 | 0.00 | 0.00 | 48 | 1013.8 |
| 20260903080218 | 76 | 202 | 11.0 | 13.0 | 0.00 | 0.00 | 0.00 | 47 | 1013.7 |
| 20260903075716 | 76 | 200 | 9.0 | 11.0 | 0.00 | 0.00 | 0.00 | 48 | 1013.8 |
| 20260903075212 | 76 | 204 | 9.0 | 10.0 | 0.00 | 0.00 | 0.00 | 48 | 1013.7 |
| 20260903074710 | 76 | 199 | 6.0 | 11.0 | 0.00 | 0.00 | 0.00 | 48 | 1013.8 |
| 20260903074206 | 76 | 192 | 8.0 | 11.0 | 0.00 | 0.00 | 0.00 | 47 | 1014.0 |
| 20260903073701 | 76 | 202 | 8.0 | 9.0 | 0.00 | 0.00 | 0.00 | 47 | 1013.9 |
| 20260903073156 | 76 | 206 | 7.0 | 10.0 | 0.00 | 0.00 | 0.00 | 47 | 1013.4 |
| 20260903072652 | 77 | 200 | 7.0 | 11.0 | 0.00 | 0.00 | 0.00 | 47 | 1013.9 |
| 20260903072149 | 77 | 196 | 7.0 | 11.0 | 0.00 | 0.00 | 0.00 | 46 | 1014.0 |
| 20260903071644 | 77 | 206 | 11.0 | 12.0 | 0.00 | 0.00 | 0.00 | 46 | 1013.7 |
| 20260903071140 | 77 | 211 | 10.0 | 11.0 | 0.00 | 0.00 | 0.00 | 46 | 1013.6 |
| 20260903070640 | 77 | 202 | 8.0 | 11.0 | 0.00 | 0.00 | 0.00 | 46 | 1013.7 |
| 20260903070136 | 77 | 200 | 9.0 | 10.0 | 0.00 | 0.00 | 0.00 | 46 | 1014.1 |
| 20260903065635 | 78 | 206 | 9.0 | 11.0 | 0.00 | 0.00 | 0.00 | 45 | 1013.8 |
| 20260903065130 | 78 | 204 | 9.0 | 15.0 | 0.00 | 0.00 | 0.00 | 44 | 1013.6 |
| 20260903064629 | 78 | 203 | 10.0 | 15.0 | 0.00 | 0.00 | 0.00 | 44 | 1013.9 |
| 20260903064125 | 78 | 197 | 8.0 | 14.0 | 0.00 | 0.00 | 0.00 | 44 | 1013.9 |
| 20260903063620 | 78 | 205 | 9.0 | 16.0 | 0.00 | 0.00 | 0.00 | 44 | 1013.9 |
| 20260903063115 | 78 | 179 | 12.0 | 14.0 | 0.00 | 0.00 | 0.00 | 45 | 1013.8 |
| 20260903062611 | 78 | 199 | 10.0 | 18.0 | 0.00 | 0.00 | 0.00 | 45 | 1014.0 |
| 20260903062106 | 78 | 200 | 9.0 | 14.0 | 0.00 | 0.00 | 0.00 | 45 | 1014.2 |
| 20260903061606 | 78 | 188 | 11.0 | 16.0 | 0.00 | 0.00 | 0.00 | 45 | 1013.7 |
| 20260903061101 | 78 | 188 | 14.0 | 16.0 | 0.00 | 0.00 | 0.00 | 45 | 1013.7 |
| 20260903060601 | 78 | 192 | 11.0 | 16.0 | 0.00 | 0.00 | 0.00 | 44 | 1013.7 |
| 20260903060056 | 78 | 188 | 9.0 | 15.0 | 0.00 | 0.00 | 0.00 | 45 | 1014.0 |
| 20260903055553 | 78 | 197 | 9.0 | 17.0 | 0.00 | 0.00 | 0.00 | 45 | 1013.9 |
| 20260903055052 | 78 | 187 | 9.0 | 14.0 | 0.00 | 0.00 | 0.00 | 45 | 1014.2 |
| 20260903054547 | 79 | 198 | 13.0 | 19.0 | 0.00 | 0.00 | 0.00 | 45 | 1013.8 |
| 20260903054043 | 79 | 196 | 17.0 | 18.0 | 0.00 | 0.00 | 0.00 | 44 | 1013.8 |
| 20260903053538 | 79 | 185 | 11.0 | 18.0 | 0.00 | 0.00 | 0.00 | 44 | 1013.7 |
| 20260903053035 | 79 | 179 | 13.0 | 19.0 | 0.00 | 0.00 | 0.00 | 44 | 1014.1 |
| 20260903052530 | 79 | 180 | 13.0 | 19.0 | 0.00 | 0.00 | 0.00 | 45 | 1013.7 |
| 20260903052026 | 78 | 196 | 12.0 | 15.0 | 0.00 | 0.00 | 0.00 | 45 | 1013.7 |
| 20260903051525 | 78 | 191 | 7.0 | 17.0 | 0.00 | 0.00 | 0.00 | 45 | 1013.7 |
| 20260903051021 | 78 | 185 | 9.0 | 13.0 | 0.00 | 0.00 | 0.00 | 46 | 1013.7 |
| 20260903050520 | 78 | 191 | 14.0 | 15.0 | 0.00 | 0.00 | 0.00 | 45 | 1013.6 |
| 20260903050016 | 79 | 179 | 11.0 | 16.0 | 0.00 | 0.00 | 0.00 | 44 | 1013.8 |
| 20260903045510 | 79 | 171 | 14.0 | 17.0 | 0.00 | 0.00 | 0.00 | 45 | 1013.9 |
| 20260903045007 | 79 | 168 | 10.0 | 14.0 | 0.00 | 0.00 | 0.00 | 45 | 1013.9 |
| 20260903044502 | 79 | 172 | 11.0 | 15.0 | 0.00 | 0.00 | 0.00 | 45 | 1013.9 |
| 20260903043958 | 78 | 165 | 13.0 | 15.0 | 0.00 | 0.00 | 0.00 | 45 | 1014.0 |
| 20260903043453 | 78 | 166 | 15.0 | 16.0 | 0.00 | 0.00 | 0.00 | 45 | 1013.9 |
| 20260903042951 | 78 | 171 | 11.0 | 18.0 | 0.00 | 0.00 | 0.00 | 46 | 1014.0 |
| 20260903042447 | 78 | 174 | 9.0 | 14.0 | 0.00 | 0.00 | 0.00 | 46 | 1013.9 |
| 20260903041943 | 79 | 156 | 10.0 | 16.0 | 0.00 | 0.00 | 0.00 | 45 | 1013.9 |
| 20260903041439 | 79 | 169 | 12.0 | 17.0 | 0.00 | 0.00 | 0.00 | 45 | 1014.0 |
| 20260903040935 | 79 | 182 | 13.0 | 14.0 | 0.00 | 0.00 | 0.00 | 45 | 1013.7 |
| 20260903040433 | 79 | 165 | 14.0 | 18.0 | 0.00 | 0.00 | 0.00 | 45 | 1013.8 |
| 20260903035930 | 79 | 162 | 18.0 | 19.0 | 0.00 | 0.00 | 0.00 | 45 | 1013.8 |
| 20260903035425 | 80 | 157 | 9.0 | 17.0 | 0.00 | 0.00 | 0.00 | 45 | 1013.8 |
| 20260903034920 | 80 | 174 | 10.0 | 18.0 | 0.00 | 0.00 | 0.00 | 45 | 1013.8 |
| 20260903034415 | 80 | 164 | 13.0 | 17.0 | 0.00 | 0.00 | 0.00 | 46 | 1013.9 |
| 20260903033910 | 80 | 170 | 13.0 | 19.0 | 0.00 | 0.00 | 0.00 | 46 | 1014.0 |
| 20260903033405 | 80 | 159 | 14.0 | 17.0 | 0.00 | 0.00 | 0.00 | 46 | 1013.9 |
| 20260903032906 | 80 | 158 | 13.0 | 17.0 | 0.00 | 0.00 | 0.00 | 46 | 1013.9 |
| 20260903032401 | 80 | 159 | 13.0 | 16.0 | 0.00 | 0.00 | 0.00 | 46 | 1013.8 |
| 20260903031856 | 80 | 157 | 14.0 | 16.0 | 0.00 | 0.00 | 0.00 | 46 | 1013.8 |
| 20260903031355 | 81 | 157 | 12.0 | 17.0 | 0.00 | 0.00 | 0.00 | 46 | 1013.7 |
| 20260903030851 | 81 | 161 | 11.0 | 20.0 | 0.00 | 0.00 | 0.00 | 45 | 1013.4 |